Theta_e
334 334 334 334 334 333 333 332 332 333 337 340 341 339 338 337 337 338 337 337 338 337 338 338 339 339 340 341 341 341 343 343 343 343 344 346 346 345 345 346 347 347
332 332 333 333 334 333 332 333 331 332 333 336 339 339 338 337 336 336 336 336 337 337 337 338 338 339 339 340 340 340 340 341 342 342 342 344 345 344 343 344 346 347
333 332 331 332 332 332 332 332 332 332 333 334 336 338 338 337 335 335 334 334 335 336 337 338 337 338 338 339 340 340 340 340 341 342 342 343 344 344 342 342 344 346
334 331 331 331 331 331 331 331 331 331 332 332 333 335 337 337 336 334 334 333 334 335 336 337 337 337 338 338 339 340 340 340 340 341 341 342 344 344 343 341 342 345
337 333 331 330 330 331 331 331 330 330 331 331 331 332 335 337 336 335 334 333 333 335 336 337 337 338 337 338 338 339 339 340 340 340 340 340 341 341 342 342 341 342
341 337 334 331 329 330 330 330 329 329 330 330 330 331 332 334 335 335 335 333 332 333 334 335 336 336 337 338 338 338 338 338 339 339 339 338 339 339 340 340 340 340
344 342 340 336 332 329 329 330 330 329 329 329 330 330 331 332 332 332 333 333 331 330 330 329 330 331 332 334 335 335 337 337 338 337 337 337 337 338 338 338 339 338
346 345 343 341 337 332 329 328 329 329 328 328 329 329 330 331 331 330 331 331 330 328 326 326 326 326 327 328 328 330 332 334 336 336 337 337 337 337 337 338 338 337
346 346 345 345 343 339 333 329 328 328 328 328 328 328 328 329 330 330 330 330 329 327 326 325 326 325 325 325 325 326 326 328 330 332 335 336 337 338 338 338 338 337
347 347 346 346 345 344 340 334 329 327 327 327 327 328 327 327 328 329 330 330 329 328 327 326 325 325 325 326 325 326 325 325 325 326 328 330 332 335 336 338 338 337
347 347 347 347 347 346 345 341 337 332 329 327 326 327 327 326 327 328 329 330 329 328 328 326 326 325 326 325 325 325 325 325 325 324 325 326 327 329 330 332 335 336
347 347 347 347 347 348 347 346 345 341 336 331 328 327 327 326 326 326 326 329 329 329 329 327 327 325 325 325 324 325 324 324 324 324 324 324 324 326 327 329 330 332
348 348 348 348 348 348 348 348 347 347 343 338 332 329 327 327 327 326 326 327 327 328 329 328 327 327 326 325 324 324 324 324 324 324 324 324 323 325 326 328 329 329
348 348 348 348 348 348 349 349 349 349 348 345 341 336 332 329 328 327 327 327 327 327 327 327 328 328 327 326 325 325 325 325 325 325 325 324 324 324 324 326 328 329
348 349 348 348 349 349 349 349 350 350 350 349 347 343 339 334 331 329 328 327 327 327 327 327 328 328 327 327 326 326 326 326 327 327 327 327 326 324 324 324 326 327
349 349 348 349 348 349 350 350 351 351 351 351 350 348 346 342 338 336 333 332 331 330 330 329 329 329 329 329 329 329 329 330 330 329 330 329 328 326 324 324 325 326
349 349 349 349 349 349 350 351 351 351 351 352 351 351 350 348 346 344 341 339 337 336 335 335 334 334 334 333 333 333 333 333 333 332 331 331 330 328 325 325 325 326
350 350 350 350 350 350 351 351 351 351 352 352 352 352 352 351 350 349 347 345 344 342 341 339 337 338 337 337 337 336 337 337 336 335 334 332 331 329 327 325 325 327
350 350 351 351 350 351 352 352 351 352 352 353 353 352 353 352 352 352 352 351 349 348 346 343 339 338 338 338 338 338 338 339 338 338 336 335 332 329 328 327 326 327
351 351 351 352 351 351 351 352 352 353 353 353 353 353 353 353 353 353 353 353 352 352 350 348 343 340 338 338 338 338 338 339 340 340 339 336 333 329 328 327 327 328
352 353 352 352 352 353 353 353 353 353 354 353 353 354 354 353 353 354 354 354 354 354 354 352 346 341 339 338 338 338 339 340 341 342 341 338 333 330 329 328 328 329
353 353 353 353 353 354 354 354 354 354 354 354 354 354 354 354 355 355 355 355 355 355 355 353 346 341 340 339 337 339 339 340 342 342 342 339 334 331 330 329 330 331
355 354 354 355 355 355 355 354 355 355 355 355 355 355 355 355 355 355 355 356 356 356 356 355 350 343 340 339 338 338 339 340 341 340 341 339 335 332 332 330 331 332
355 355 355 356 355 355 356 356 355 356 355 355 356 355 355 355 356 356 356 356 356 356 356 357 355 350 346 342 338 339 340 340 340 340 341 339 337 335 333 333 333 333
355 355 356 357 357 357 357 357 357 357 357 356 356 356 356 357 357 357 357 357 357 357 356 358 358 357 354 349 343 341 342 341 340 341 342 340 338 337 336 335 334 335
355 355 356 357 358 358 358 358 358 358 358 358 357 357 357 357 357 358 358 358 357 357 357 358 358 359 358 356 350 346 343 343 343 342 341 339 339 337 337 337 336 336
Wind_Speed
31 30 29 28 27 26 25 24 23 21 20 21 22 21 19 17 16 16 15 14 14 13 12 12 12 12 11 11 10 11 11 11 11 9 9 7 6 6 6 6 6 7
32 31 30 29 28 27 26 25 25 23 22 21 21 21 20 18 17 17 16 15 15 14 13 12 12 13 12 12 11 11 11 11 11 11 10 9 7 7 7 6 7 7
32 32 31 30 29 28 27 26 26 25 23 22 22 22 21 20 19 18 17 16 16 15 14 13 13 13 13 12 12 12 12 11 10 10 11 10 9 8 7 7 7 7
32 32 32 32 30 29 28 27 27 27 26 24 23 23 23 21 20 19 18 17 17 16 15 14 14 14 13 13 13 13 12 12 11 10 11 10 9 8 8 7 8 8
32 32 32 32 32 30 30 29 28 27 27 26 24 23 23 22 21 20 19 18 17 17 16 15 15 15 14 14 13 13 13 12 12 11 11 10 10 10 9 9 9 9
33 33 32 32 33 33 32 31 29 28 28 27 26 24 24 23 23 21 20 19 18 17 17 16 16 15 15 15 14 14 14 14 13 13 12 11 11 11 11 11 11 11
33 33 32 32 33 34 34 33 31 30 29 28 27 26 24 24 23 23 22 20 19 18 17 16 15 15 15 15 15 15 15 15 15 14 15 13 12 12 12 12 13 12
34 33 33 33 33 34 35 35 34 33 31 30 29 28 26 24 24 23 23 23 21 19 18 17 16 15 14 14 14 15 15 15 15 16 16 15 15 14 13 13 13 13
35 34 34 34 34 34 34 35 36 35 33 32 31 30 28 27 25 24 24 24 23 22 20 19 18 17 16 16 15 15 16 16 16 16 17 17 16 16 15 15 15 14
38 36 35 35 35 35 34 34 35 35 35 35 33 32 31 30 28 27 26 26 26 25 23 22 21 20 19 18 18 18 18 18 18 18 18 18 18 18 17 17 17 16
39 38 38 37 35 35 34 34 35 36 36 36 35 35 34 32 31 30 29 29 28 27 26 25 24 23 22 21 20 20 20 20 20 20 20 20 19 20 20 19 19 18
41 40 39 38 36 35 34 34 35 36 36 37 37 36 35 34 33 32 32 32 31 31 30 29 28 27 26 25 23 23 22 22 22 22 22 22 21 20 20 21 21 20
42 41 40 38 37 35 34 34 34 35 36 37 37 37 37 36 35 34 34 33 33 33 33 32 31 31 30 29 27 26 25 24 24 24 23 23 23 22 21 21 21 21
42 41 40 39 37 36 35 34 33 33 34 35 36 38 38 38 37 36 35 35 35 35 35 34 34 34 34 32 31 29 28 27 26 26 25 24 24 23 22 21 21 21
42 42 41 39 39 38 36 35 34 33 33 33 34 36 37 38 38 38 38 38 37 37 37 37 37 37 36 35 34 32 31 30 28 28 27 27 26 25 24 23 21 21
43 42 41 41 40 39 37 36 35 34 33 33 33 33 35 36 37 38 38 39 39 38 38 38 39 38 37 36 36 34 33 32 31 30 29 29 28 27 26 25 23 22
43 43 42 41 40 39 38 37 36 35 35 34 33 32 32 33 34 36 38 38 38 38 38 38 38 38 37 36 35 34 34 33 32 31 30 30 30 29 28 26 25 23
44 43 43 42 41 40 39 38 37 36 36 35 35 33 32 32 32 33 34 35 36 37 38 38 38 37 36 35 35 34 33 33 32 31 30 30 31 30 29 28 26 25
44 44 43 42 41 40 39 38 38 37 36 35 35 34 33 33 32 32 32 33 34 35 36 36 37 36 35 34 34 33 32 31 31 30 30 30 30 31 30 29 28 26
44 44 43 42 41 40 39 39 39 38 37 36 35 35 35 34 32 32 31 31 32 33 34 35 35 35 34 33 32 31 30 30 30 29 29 29 29 30 30 29 28 27
43 43 42 41 40 40 40 40 39 38 37 36 36 35 35 34 32 32 31 31 31 32 33 34 34 33 33 32 31 30 29 29 29 29 29 28 28 29 29 29 28 27
43 42 41 41 40 40 40 39 39 38 36 36 36 36 36 35 34 34 33 32 32 32 32 33 33 32 32 32 31 29 28 28 28 28 28 28 28 28 29 29 28 28
36 39 40 40 39 39 39 39 38 37 36 36 36 36 36 36 35 34 34 33 33 33 33 32 31 31 32 31 31 30 29 29 29 28 28 28 28 28 29 29 28 28
30 33 35 38 39 39 39 38 37 37 36 36 37 37 36 35 35 34 34 34 34 33 33 32 31 30 30 31 30 30 30 29 29 29 29 29 28 28 29 29 29 28
27 28 30 34 37 38 38 38 37 36 36 36 37 37 37 36 36 36 36 35 34 34 33 33 32 30 29 29 30 30 30 30 29 30 30 30 29 29 29 30 30 29
23 27 28 29 32 35 36 37 37 36 36 37 37 37 37 37 37 37 36 35 35 35 34 34 33 31 30 29 29 29 30 30 30 31 31 31 30 30 30 30 30 30
Wind_Direction
226 226 227 228 230 231 230 230 228 225 222 222 221 223 224 224 224 226 227 228 230 232 233 234 236 235 232 228 231 239 243 242 237 234 236 238 244 255 262 271 278 275
225 227 228 229 230 231 232 232 231 229 226 225 225 226 226 226 227 228 230 231 231 233 234 235 237 238 238 237 237 242 247 248 246 246 248 249 251 258 260 262 268 271
227 227 228 229 229 230 232 233 233 232 231 230 229 228 228 229 229 230 231 232 233 234 235 237 238 238 240 241 241 244 249 253 254 254 257 257 256 263 267 263 259 261
229 229 229 229 230 230 232 234 235 234 234 233 231 230 231 231 231 230 230 232 233 233 235 237 238 239 241 242 243 245 250 256 259 257 258 258 257 263 269 269 263 257
231 231 231 230 231 231 232 233 235 236 235 235 233 231 231 232 232 231 230 231 232 232 233 235 238 240 242 244 246 248 251 256 260 260 260 258 258 262 264 266 266 262
233 233 233 233 233 233 233 234 235 235 236 237 236 233 232 232 233 233 232 232 232 231 230 233 237 239 241 245 248 252 255 259 262 264 264 262 260 261 262 262 264 264
236 235 234 234 235 235 235 236 236 236 236 237 237 237 235 234 234 234 233 233 232 229 228 231 235 238 243 247 251 255 258 261 264 265 266 266 264 263 263 263 264 264
237 238 237 236 236 237 238 238 238 238 238 237 237 238 239 238 237 236 235 234 233 231 231 234 237 240 245 250 254 258 260 262 263 265 266 268 268 267 268 268 269 268
238 239 239 239 237 237 238 240 241 241 240 239 239 239 240 241 240 239 239 238 238 237 238 239 242 245 248 252 256 260 262 263 264 264 266 267 268 269 270 271 272 272
239 240 240 241 240 239 238 240 242 243 243 242 242 241 241 241 241 241 242 243 243 244 245 246 248 250 253 256 258 260 264 266 267 267 267 267 268 269 269 269 270 271
239 240 241 242 242 242 241 240 241 243 244 244 244 244 244 244 243 243 244 246 247 248 250 252 254 255 257 259 260 263 265 267 268 270 270 270 270 269 269 268 268 268
239 240 241 242 244 244 244 243 242 242 244 245 246 246 247 247 247 247 247 248 249 251 253 255 257 259 261 262 263 264 265 266 267 269 270 271 272 272 270 269 267 267
240 241 242 243 245 246 246 246 246 245 244 245 246 247 248 249 249 250 250 251 252 253 254 256 258 261 263 264 265 265 265 265 266 267 268 269 270 271 271 270 268 267
242 243 244 245 246 247 247 247 247 247 246 246 246 247 248 249 250 251 253 254 254 255 256 257 259 261 263 264 265 266 265 265 265 266 266 267 267 268 269 269 267 266
244 244 244 245 246 246 247 248 248 248 248 247 247 247 248 249 250 251 253 254 256 257 259 259 260 261 262 264 265 265 265 264 264 264 265 265 265 265 265 266 265 264
243 244 245 245 245 247 248 248 248 248 248 249 248 248 248 248 249 250 251 253 255 257 259 260 261 262 262 263 264 264 264 264 264 263 263 263 262 262 262 262 263 263
243 244 244 245 246 247 248 249 249 249 249 250 250 250 251 251 250 250 251 252 254 256 257 259 260 261 261 261 262 262 263 263 262 262 261 261 261 259 259 259 261 261
242 243 244 246 247 248 249 250 250 250 250 251 251 252 252 252 252 252 252 252 253 254 255 256 257 258 258 258 259 259 261 261 261 261 260 259 258 258 257 258 259 260
242 243 244 245 247 248 250 250 250 250 251 251 252 252 253 253 254 255 254 254 254 254 254 254 254 255 255 255 256 256 257 259 260 260 259 258 257 256 257 257 258 259
240 241 243 245 247 248 249 249 250 251 252 253 253 253 253 254 255 255 256 256 256 255 255 254 253 253 253 253 253 253 253 255 258 259 259 258 256 255 256 256 256 257
239 240 242 244 246 247 248 249 250 252 253 254 254 254 255 255 255 256 256 257 257 256 256 255 252 251 251 252 252 251 251 253 256 258 259 258 255 254 255 255 255 255
238 239 240 242 244 245 247 248 250 252 254 255 255 256 256 256 256 257 257 257 258 257 258 256 252 249 249 249 249 249 250 252 254 256 257 257 255 253 253 254 254 254
236 238 239 242 243 244 246 248 251 253 254 255 255 256 257 257 258 258 259 259 259 258 259 258 254 249 247 247 247 248 249 251 252 253 254 255 254 253 253 253 253 253
239 240 241 243 244 246 248 250 251 253 255 256 257 257 259 259 260 260 261 261 261 260 260 260 258 254 251 248 246 246 248 249 250 251 252 253 253 252 251 251 251 251
242 242 244 245 247 248 250 251 252 254 256 257 258 259 260 260 261 261 261 262 263 262 262 261 261 259 255 251 247 246 246 247 248 250 251 251 252 251 250 250 250 249
244 244 245 245 247 249 250 251 253 254 256 256 257 259 260 260 261 261 262 263 264 264 263 262 261 260 257 253 249 246 245 246 247 248 249 250 251 251 251 250 249 248